This is the latest recevied weather packets stored in our database for station/object N5RPG. If no packets are shown the sender has not sent any weather packets the latest 10 day(s).
| Time | Temp. | Humidity | Pressure | Rain* | Wind** | Luminosity | Snow |
|---|---|---|---|---|---|---|---|
| 1777990695 | 21.67° C | 84% | 1008.5 hPa | 0 mm | - | 96 W/m² | - |
| 1777990392 | 21.67° C | 85% | 1008.6 hPa | 0 mm | - | 89 W/m² | - |
| 1777989784 | 21.67° C | 85% | 1008.2 hPa | 0 mm | - | 86 W/m² | - |
| 1777989481 | 21.67° C | 85% | 1008.4 hPa | 0 mm | - | 29 W/m² | - |
| 1777989178 | 21.67° C | 86% | 1008.5 hPa | 0 mm | - | 84 W/m² | - |
| 1777988874 | 21.67° C | 86% | 1008.6 hPa | 0 mm | - | 73 W/m² | - |
| 1777988571 | 21.11° C | 86% | 1008.6 hPa | 0 mm | - | 51 W/m² | - |
| 1777988268 | 21.11° C | 86% | 1008.6 hPa | 0 mm | - | 36 W/m² | - |
| 1777987964 | 21.11° C | 86% | 1008.6 hPa | 0 mm | - | 38 W/m² | - |
| 1777987660 | 21.11° C | 86% | 1008.6 hPa | 0 mm | - | 31 W/m² | - |
| 1777987357 | 21.11° C | 86% | 1008.6 hPa | 0 mm | - | 37 W/m² | - |
| 1777987055 | 21.11° C | 86% | 1008.1 hPa | 0 mm | - | 43 W/m² | - |
| 1777986752 | 21.11° C | 86% | 1008.5 hPa | 0 mm | - | 36 W/m² | - |
| 1777986450 | 21.11° C | 86% | 1008.4 hPa | 0 mm | - | 27 W/m² | - |
| 1777986148 | 21.11° C | 86% | 1008.6 hPa | 0 mm | - | 13 W/m² | - |
| 1777985844 | 21.11° C | 86% | 1008.6 hPa | 0 mm | - | 13 W/m² | - |
| 1777985542 | 21.11° C | 87% | 1008.6 hPa | 0 mm | - | 25 W/m² | - |
| 1777985238 | 20.56° C | 87% | 1008.3 hPa | 0 mm | - | 25 W/m² | - |
| 1777984935 | 20.56° C | 87% | 1008.2 hPa | 0 mm | - | 8 W/m² | - |
| 1777984631 | 20.56° C | 87% | 1008.2 hPa | 0 mm | - | 19 W/m² | - |
| 1777984328 | 20.56° C | 87% | 1008.3 hPa | 0 mm | - | 15 W/m² | - |
| 1777984025 | 20.56° C | 87% | 1008.4 hPa | 0 mm | - | 12 W/m² | - |
| 1777983722 | 20.56° C | 87% | 1008.3 hPa | 0 mm | - | 13 W/m² | - |
| 1777983418 | 20.56° C | 87% | 1008.3 hPa | 0 mm | - | 12 W/m² | - |
| 1777983115 | 20.56° C | 87% | 1008.1 hPa | 0 mm | - | 9 W/m² | - |
* Rain latest hour (hover to see other rain measurements)
** Current wind speed in m/s (hover to see current wind gust speed)